CW2640 Weather Reports


Display with metric or nautical units.
time (UTC)temp
F
wind
direction
speed
MPH
gust
MPH
rain 1hr
in
rain 24hr
in
rain mn
in
humidity
%
barometer
mb
20260903091155 74 80 0.0 0.0 0.00 0.00 0.00 99 1016.8
20260903084155 75 80 0.0 0.0 0.00 0.00 0.00 99 1016.9
20260903081155 75 80 0.0 0.0 0.00 0.00 0.00 99 1016.7
20260903074154 75 80 0.0 0.0 0.00 0.00 0.00 99 1016.8
20260903071151 75 80 0.0 0.0 0.00 0.00 0.00 99 1016.8
20260903064147 76 80 0.0 0.0 0.00 0.00 0.00 99 1016.9
20260903061146 76 81 0.0 0.0 0.00 0.00 0.00 99 1017.0
20260903054147 77 86 0.0 0.0 0.00 0.00 0.00 98 1017.2
20260903051143 77 93 0.0 0.0 0.00 0.00 0.00 97 1017.2
20260903044142 78 96 0.0 0.0 0.00 0.00 0.00 96 1017.0
20260903041143 78 101 0.0 0.0 0.00 0.00 0.00 94 1017.0
20260903034142 79 105 0.0 0.0 0.00 0.00 0.00 92 1017.4
20260903031141 80 105 0.0 0.0 0.00 0.00 0.00 91 1017.2
20260903024141 80 105 0.0 0.0 0.00 0.00 0.00 90 1017.2
20260903021137 81 105 0.0 0.0 0.00 0.00 0.00 89 1017.0
20260903014135 81 107 0.0 0.0 0.00 0.00 0.00 87 1016.9
20260903011134 82 108 0.0 0.0 0.00 0.00 0.00 85 1016.4
20260903004131 84 104 0.0 0.0 0.00 0.00 0.00 83 1016.3
20260903001130 85 101 0.0 0.0 0.00 0.00 0.00 80 1016.4
20260902234130 88 98 0.0 0.0 0.00 0.00 0.00 71 1016.2
20260902231130 91 92 0.0 0.0 0.00 0.00 0.00 63 1016.3
20260902224125 94 84 0.0 0.0 0.00 0.00 0.00 57 1016.2
20260902221125 95 80 0.0 0.0 0.00 0.00 0.00 53 1016.2
20260902214123 96 80 0.0 0.0 0.00 0.00 0.00 53 1016.3
20260902211119 96 80 0.0 0.0 0.00 0.00 0.00 54 1016.6
20260902204115 98 80 0.0 0.0 0.00 0.00 0.00 51 1016.8
20260902201114 97 80 0.0 0.0 0.00 0.00 0.00 52 1017.0
20260902194113 98 80 0.0 0.0 0.00 0.00 0.00 46 1017.6
20260902191113 97 80 0.0 0.0 0.00 0.00 0.00 51 1018.0
20260902184109 97 80 0.0 0.0 0.00 0.00 0.00 51 1018.4
20260902181106 97 80 0.0 0.0 0.00 0.00 0.00 49 1018.8
20260902174101 96 80 0.0 0.0 0.00 0.00 0.00 53 1019.3
20260902171100 96 80 0.0 0.0 0.00 0.00 0.00 55 1019.5
20260902164056 95 80 0.0 0.0 0.00 0.00 0.00 55 1019.9
20260902161054 93 80 0.0 0.0 0.00 0.00 0.00 61 1020.0
20260902154050 93 80 0.0 0.0 0.00 0.00 0.00 68 1020.3
20260902151048 89 80 0.0 0.0 0.00 0.00 0.00 73 1020.2
20260902144048 89 80 0.0 0.0 0.00 0.00 0.00 76 1020.3
20260902141048 86 80 0.0 0.0 0.00 0.00 0.00 81 1020.2
20260902134046 80 80 0.0 0.0 0.00 0.00 0.00 89 1020.1
20260902131045 76 80 0.0 0.0 0.00 0.00 0.00 98 1020.1
20260902124042 73 80 0.0 0.0 0.00 0.00 0.00 99 1020.1
20260902121040 72 80 0.0 0.0 0.00 0.00 0.00 99 1019.7
20260902114036 71 80 0.0 0.0 0.00 0.00 0.00 99 1019.8
20260902111033 71 80 0.0 0.0 0.00 0.00 0.00 99 1019.3
20260902104032 72 80 0.0 0.0 0.00 0.00 0.00 99 1019.1
20260902101028 72 80 0.0 0.0 0.00 0.00 0.00 99 1018.8
20260902094024 72 80 0.0 0.0 0.00 0.00 0.00 99 1018.7